{"data":{"norad_id":60411,"epoch":"2026-05-24T23:50:42.789984Z","epoch_age_seconds":69393,"freshness":"FRESH","line1":"1 60411U 24141P   26144.99355081  .00000165  00000+0  17074-4 0  9995","line2":"2 60411  53.1632 248.1278 0001014  99.0887 261.0229 15.31698209101269","mean_motion":15.31698209,"eccentricity":0.0001014,"inclination_deg":53.1632,"raan_deg":248.1278,"arg_perigee_deg":99.0887,"mean_anomaly_deg":261.0229,"bstar":1.7074e-5,"rev_number":10126,"period_min":94.013297889806,"perigee_km":470.05085743997,"apogee_km":471.43981077733,"semimajor_km":6848.8823341087,"source":"CELESTRAK","updated_at":"2026-05-25T13:38:19.270061Z"}}